Regional Weather Roundup
Issued by NWS

Home | Current Version | Previous Version | Text Only | Print | Product List | Glossary On
Versions: 1 2 3 4 5 6 7 8 9 10 11 12 13 14 15 16 17 18 19 20 21 22 23 24 25 26 27 28 29 30 31 32 33 34 35 36 37 38 39 40 41 42 43 44 45 46 47 48 49 50
394
ASUS43 KBIS 211610
RWRND

NORTH DAKOTA REGIONAL WEATHER ROUNDUP
NATIONAL WEATHER SERVICE BISMARCK ND
1000 AM CST TUE FEB 21 2017

NOTE: "FAIR" INDICATES FEW OR NO CLOUDS BELOW 12,000 FEET WITH NO
SIGNIFICANT WEATHER AND/OR OBSTRUCTIONS TO VISIBILITY.


NDZ001>003-009>011-017-211700-
NORTHWEST NORTH DAKOTA

CITY           SKY/WX    TMP DP  RH WIND       PRES   REMARKS
WILLISTON      FAIR      37  31  78 SW10      29.66S
MINOT          FAIR      41  31  67 NW6       29.64S
MINOT AFB      SUNNY     36  31  82 W6        29.64S
$$

NDZ018>021-031>035-040>046-211700-
SOUTHWEST NORTH DAKOTA

CITY           SKY/WX    TMP DP  RH WIND       PRES   REMARKS
BISMARCK       FAIR      37  32  82 CALM      29.70S
DICKINSON      FAIR      47  31  53 W6        29.68S
GARRISON         N/A     35  29  78 W3        29.66F
HETTINGER ARPT SUNNY     50  33  52 W5        29.73F
$$

NDZ004>008-012>016-024-026-027-054-211700-
NORTHEAST NORTH DAKOTA

CITY           SKY/WX    TMP DP  RH WIND       PRES   REMARKS
GRAND FORKS    MOSUNNY   36  31  82 SE8       29.68F HAZE
GRND FRKS AFB  SUNNY     35  34  98 SE5       29.67F
DEVILS LAKE    FAIR      35  32  88 S7        29.66S
$$

NDZ022-023-025-028>030-036>039-047>053-211700-
SOUTHEAST NORTH DAKOTA

CITY           SKY/WX    TMP DP  RH WIND       PRES   REMARKS
FARGO          MOSUNNY   40  34  79 S9        29.68F
JAMESTOWN      FAIR      39  33  79 W12       29.65S
$$





USA.gov is the U.S. government's official web portal to all federal, state and local government web resources and services.